Location: Maccacari
(45.1333°N, 11.1333°E)
Time: 08:36:11
(UTC+00:00)

Resurs 1-3 - Pass Details

Date: 18 September 2020
Orbit: 631 x 632 km, 97.9° (Epoch: 29 October)

Event Time Altitude Azimuth Distance (km) Brightness Sun altitude
Exits shadow 20:01:12 44° 252° (WSW) 874 4.5 -27.6°
Maximum altitude 20:01:24 45° 261° (W) 869 4.5 -27.6°
Drops below altitude 10° 20:05:38 10° 335° (NNW) 2,023 6.9 -28.2°
Sets 20:07:56 0° 341° (NNW) 2,936 7.8 -28.5°
